TimeCST,TemperatureF,Dew PointF,Humidity,Sea Level PressureIn,VisibilityMPH,Wind Direction,Wind SpeedMPH,Gust SpeedMPH,PrecipitationIn,Events,Conditions,WindDirDegrees,DateUTC
12:15 AM,15.6,9.7,77,30.40,10.0,South,5.8,-,N/A,,Clear,190,2013-01-15 06:15:00
12:35 AM,16.0,9.9,77,30.40,10.0,SSW,4.6,-,N/A,,Clear,200,2013-01-15 06:35:00
12:55 AM,16.2,10.2,77,30.40,10.0,South,4.6,-,N/A,,Clear,190,2013-01-15 06:55:00
1:15 AM,17.1,10.9,77,30.40,10.0,SSW,5.8,-,N/A,,Clear,210,2013-01-15 07:15:00
1:35 AM,18.0,11.3,75,30.39,10.0,SSW,8.1,-,N/A,,Clear,210,2013-01-15 07:35:00
1:55 AM,18.5,11.7,75,30.39,10.0,SSW,5.8,-,N/A,,Scattered Clouds,210,2013-01-15 07:55:00
2:15 AM,18.5,11.8,75,30.39,10.0,SSW,6.9,-,N/A,,Scattered Clouds,210,2013-01-15 08:15:00
2:35 AM,18.9,12.0,75,30.39,10.0,SW,4.6,-,N/A,,Clear,220,2013-01-15 08:35:00
2:55 AM,18.9,11.7,74,30.39,10.0,SSW,4.6,-,N/A,,Scattered Clouds,210,2013-01-15 08:55:00
3:15 AM,18.5,12.0,76,30.39,10.0,SSW,4.6,-,N/A,,Overcast,200,2013-01-15 09:15:00
3:35 AM,18.0,11.7,76,30.38,10.0,SSW,3.5,-,N/A,,Scattered Clouds,200,2013-01-15 09:35:00
3:55 AM,17.6,11.3,76,30.38,10.0,South,3.5,-,N/A,,Scattered Clouds,170,2013-01-15 09:55:00
4:15 AM,16.0,10.4,79,30.36,10.0,South,3.5,-,N/A,,Mostly Cloudy,180,2013-01-15 10:15:00
4:55 AM,15.4,9.7,78,30.35,10.0,South,4.6,-,N/A,,Clear,170,2013-01-15 10:55:00
5:15 AM,14.5,9.3,80,30.35,10.0,South,5.8,-,N/A,,Clear,180,2013-01-15 11:15:00
5:35 AM,13.6,9.0,82,30.35,10.0,South,4.6,-,N/A,,Clear,170,2013-01-15 11:35:00
5:55 AM,13.1,8.8,83,30.35,10.0,SSE,6.9,-,N/A,,Mostly Cloudy,160,2013-01-15 11:55:00
6:15 AM,12.4,8.2,83,30.36,10.0,South,5.8,-,N/A,,Scattered Clouds,180,2013-01-15 12:15:00
6:35 AM,12.0,8.1,84,30.36,10.0,South,4.6,-,N/A,,Clear,180,2013-01-15 12:35:00
6:55 AM,12.6,8.1,82,30.36,10.0,South,3.5,-,N/A,,Clear,190,2013-01-15 12:55:00
7:15 AM,12.6,7.7,81,30.36,10.0,South,4.6,-,N/A,,Clear,180,2013-01-15 13:15:00
7:35 AM,11.3,7.0,83,30.37,10.0,South,5.8,-,N/A,,Clear,190,2013-01-15 13:35:00
7:55 AM,11.7,7.7,84,30.38,10.0,South,5.8,-,N/A,,Clear,190,2013-01-15 13:55:00
8:15 AM,12.9,8.6,83,30.38,10.0,SSW,3.5,-,N/A,,Clear,210,2013-01-15 14:15:00
8:35 AM,15.8,11.5,83,30.38,10.0,South,3.5,-,N/A,,Clear,180,2013-01-15 14:35:00
8:55 AM,19.4,14.0,80,30.39,10.0,SSW,4.6,-,N/A,,Clear,200,2013-01-15 14:55:00
9:15 AM,21.9,15.4,76,30.39,10.0,SSW,5.8,-,N/A,,Clear,210,2013-01-15 15:15:00
9:35 AM,23.9,15.6,71,30.37,10.0,SW,4.6,-,N/A,,Clear,230,2013-01-15 15:35:00
9:55 AM,25.3,15.6,67,30.35,10.0,SW,3.5,-,N/A,,Clear,220,2013-01-15 15:55:00
10:15 AM,27.3,15.4,61,30.35,10.0,WSW,3.5,-,N/A,,Clear,250,2013-01-15 16:15:00
10:35 AM,28.2,13.8,55,30.33,10.0,Calm,Calm,-,N/A,,Clear,0,2013-01-15 16:35:00
10:55 AM,28.4,14.7,57,30.34,10.0,SSW,5.8,-,N/A,,Clear,200,2013-01-15 16:55:00
11:15 AM,29.8,12.4,48,30.34,10.0,South,5.8,-,N/A,,Clear,170,2013-01-15 17:15:00
11:35 AM,30.4,11.5,45,30.33,10.0,SSW,8.1,-,N/A,,Clear,200,2013-01-15 17:35:00
11:55 AM,31.3,11.5,44,30.31,10.0,South,8.1,-,N/A,,Clear,170,2013-01-15 17:55:00
12:15 PM,31.3,11.3,44,30.30,10.0,SSW,5.8,-,N/A,,Clear,210,2013-01-15 18:15:00
12:35 PM,31.8,12.9,46,30.29,10.0,WSW,4.6,-,N/A,,Scattered Clouds,240,2013-01-15 18:35:00
12:55 PM,31.8,12.0,44,30.27,10.0,SSW,6.9,-,N/A,,Scattered Clouds,210,2013-01-15 18:55:00
1:15 PM,32.2,11.1,42,30.27,10.0,SSW,8.1,-,N/A,,Mostly Cloudy,200,2013-01-15 19:15:00
1:35 PM,32.2,10.4,40,30.26,10.0,Calm,Calm,-,N/A,,Overcast,0,2013-01-15 19:35:00
1:55 PM,33.1,9.7,38,30.26,10.0,SSW,5.8,-,N/A,,Overcast,200,2013-01-15 19:55:00
2:15 PM,32.9,8.6,36,30.25,10.0,South,3.5,-,N/A,,Scattered Clouds,190,2013-01-15 20:15:00
2:35 PM,33.4,9.9,37,30.25,10.0,South,8.1,-,N/A,,Clear,180,2013-01-15 20:35:00
2:55 PM,33.4,8.6,35,30.25,10.0,SSW,6.9,-,N/A,,Clear,200,2013-01-15 20:55:00
3:15 PM,33.3,9.9,38,30.25,10.0,SSE,6.9,-,N/A,,Clear,160,2013-01-15 21:15:00
3:35 PM,32.9,10.6,40,30.25,10.0,South,8.1,-,N/A,,Clear,180,2013-01-15 21:35:00
3:55 PM,32.7,10.8,40,30.25,10.0,South,10.4,-,N/A,,Clear,190,2013-01-15 21:55:00
4:15 PM,32.0,10.9,42,30.25,10.0,South,8.1,-,N/A,,Clear,180,2013-01-15 22:15:00
4:35 PM,31.5,10.9,43,30.25,10.0,South,9.2,-,N/A,,Clear,180,2013-01-15 22:35:00
4:55 PM,30.0,12.9,49,30.24,10.0,South,8.1,-,N/A,,Clear,170,2013-01-15 22:55:00
5:15 PM,27.3,14.0,57,30.23,10.0,SSE,8.1,-,N/A,,Clear,160,2013-01-15 23:15:00
5:35 PM,25.9,14.4,62,30.23,10.0,SSE,8.1,-,N/A,,Clear,160,2013-01-15 23:35:00
5:55 PM,24.8,14.0,64,30.22,10.0,SSE,9.2,-,N/A,,Clear,160,2013-01-15 23:55:00
6:15 PM,23.9,14.4,67,30.22,10.0,SSE,8.1,-,N/A,,Clear,160,2013-01-16 00:15:00
6:35 PM,23.4,14.0,67,30.21,10.0,SSE,10.4,-,N/A,,Clear,160,2013-01-16 00:35:00
6:55 PM,21.9,13.6,70,30.21,10.0,SSE,9.2,-,N/A,,Clear,160,2013-01-16 00:55:00
7:15 PM,20.3,13.1,74,30.20,10.0,South,8.1,-,N/A,,Clear,170,2013-01-16 01:15:00
7:35 PM,20.5,13.1,73,30.20,10.0,South,6.9,-,N/A,,Clear,180,2013-01-16 01:35:00
7:55 PM,19.9,12.7,74,30.19,10.0,South,8.1,-,N/A,,Clear,170,2013-01-16 01:55:00
8:15 PM,19.6,12.4,74,30.18,10.0,South,5.8,-,N/A,,Clear,180,2013-01-16 02:15:00
8:35 PM,18.5,11.8,75,30.17,10.0,South,8.1,-,N/A,,Clear,190,2013-01-16 02:35:00
8:55 PM,17.8,11.1,75,30.15,10.0,South,9.2,-,N/A,,Clear,180,2013-01-16 02:55:00
9:15 PM,18.3,11.3,74,30.15,10.0,South,8.1,-,N/A,,Clear,190,2013-01-16 03:15:00
9:35 PM,18.1,11.3,75,30.14,10.0,South,10.4,-,N/A,,Clear,190,2013-01-16 03:35:00
9:55 PM,17.4,10.6,75,30.14,10.0,SSW,8.1,-,N/A,,Clear,200,2013-01-16 03:55:00
10:15 PM,17.4,10.4,74,30.14,10.0,SSW,6.9,-,N/A,,Clear,200,2013-01-16 04:15:00
10:35 PM,17.4,10.2,73,30.13,10.0,SSW,6.9,-,N/A,,Clear,200,2013-01-16 04:35:00
10:55 PM,17.4,10.0,73,30.12,10.0,SSW,6.9,-,N/A,,Clear,210,2013-01-16 04:55:00
11:15 PM,16.7,9.5,73,30.12,10.0,SSW,6.9,-,N/A,,Clear,210,2013-01-16 05:15:00
11:35 PM,15.8,9.0,74,30.12,10.0,South,6.9,-,N/A,,Clear,190,2013-01-16 05:35:00